Location: 22
(39.7117°N, 89.5929°W)
Time: 08:36:00
(UTC-05:00)

Transit 2A - Pass Details

Date: 08 August 2024
Orbit: 590 x 961 km, 66.7° (Epoch: 13 September)

Event Time Altitude Azimuth Distance (km) Brightness Sun altitude
Rises 04:46:48 0° 215° (SW) 3,188 - -14.0°
Reaches altitude 10° 04:49:05 10° 218° (SW) 2,323 - -13.6°
Exits shadow 04:50:22 18° 220° (SW) 1,855 7.4 -13.4°
Maximum altitude 04:54:27 69° 301° (WNW) 898 6.2 -12.8°
Drops below altitude 10° 05:00:25 10° 25° (NNE) 2,579 9.7 -11.8°
Sets 05:03:04 0° 28° (NNE) 3,566 10.6 -11.4°
